Wind_Speed
61 65 69 71 71 70 78 80 83 84 84 83 85 84 81 78 75 75 75 72 71 70 70 71 71 66 64 66 63 66 64 64 70 73 72 69 65 65 61 63 64 63 64 66 67
57 63 68 71 74 71 71 73 80 83 84 87 86 83 82 83 82 81 80 77 74 73 74 73 70 69 64 62 63 65 62 66 67 66 66 65 61 59 57 57 57 59 62 64 66
54 57 65 67 73 74 73 67 71 78 81 84 84 86 82 81 83 86 81 79 80 78 76 74 73 73 69 62 62 62 63 66 60 61 61 62 61 55 53 53 58 59 60 63 65
51 55 58 64 69 70 73 72 71 69 74 80 83 85 85 84 82 83 82 83 81 78 77 76 73 70 70 66 58 56 57 55 56 55 57 59 57 52 48 54 54 55 58 61 63
49 52 57 62 66 70 71 74 76 74 74 76 80 84 86 89 88 85 82 82 81 80 80 76 73 70 68 66 62 55 58 54 53 51 51 53 55 52 49 52 54 54 57 60 61
46 49 50 59 64 69 74 75 75 75 80 80 80 79 85 86 84 86 84 82 80 78 78 78 79 76 73 72 64 58 60 57 56 53 51 51 54 47 55 58 55 54 56 59 59
46 49 50 52 58 65 71 78 75 76 77 81 81 82 82 81 85 85 86 83 80 78 75 75 77 75 74 73 65 59 60 61 59 57 52 51 47 45 57 53 51 52 55 58 59
46 50 53 52 54 56 62 68 72 74 75 76 76 80 80 83 82 88 86 84 81 79 77 76 74 72 71 69 69 65 63 63 66 61 58 53 52 54 56 52 51 51 52 54 57
44 52 54 56 57 56 57 59 63 69 73 77 78 82 74 77 79 82 87 85 82 79 78 76 75 73 74 74 71 71 68 66 68 67 65 60 54 60 59 54 53 51 48 50 54
54 53 56 58 59 57 56 55 56 58 61 68 74 76 70 69 73 80 80 86 85 81 78 76 75 74 75 77 75 74 70 72 68 71 69 63 56 62 63 61 57 55 54 48 51
63 57 60 61 63 62 57 50 48 52 54 63 67 67 68 65 66 72 76 80 84 83 81 78 76 78 79 78 77 77 77 73 73 72 71 65 60 60 65 65 64 61 58 56 52
56 50 54 59 65 65 60 46 46 56 56 57 55 58 60 60 62 66 71 73 77 82 81 81 78 78 80 81 81 81 79 74 76 75 72 69 58 63 66 66 67 66 63 63 61
49 46 49 51 60 67 61 48 51 51 52 53 53 54 55 54 56 61 66 68 72 78 81 80 79 80 81 82 84 83 76 77 77 76 74 72 63 69 66 66 68 68 68 69 68
42 41 44 45 52 59 63 53 51 51 52 52 52 51 50 51 49 50 54 58 64 71 76 79 80 82 82 82 82 77 75 75 77 79 79 78 72 68 71 72 74 76 75 74 74
33 34 36 41 45 53 64 59 56 55 52 51 47 49 51 48 49 50 54 59 65 71 75 78 81 78 76 77 74 74 75 77 79 80 81 80 84 67 75 77 79 85 83 81 81
26 26 30 37 44 53 69 65 64 50 48 46 45 49 49 48 47 46 48 54 61 65 66 67 68 67 69 72 72 74 77 80 82 82 80 83 88 68 80 82 84 87 91 87 84
20 19 27 37 46 54 71 71 59 43 46 48 48 51 50 46 45 43 42 46 51 53 55 55 58 61 66 69 72 74 78 80 82 85 80 85 86 75 85 85 86 88 89 89 83
14 14 25 36 41 52 66 70 52 43 44 49 50 49 45 43 39 37 39 42 44 44 48 52 57 62 66 65 68 70 76 79 75 77 78 79 74 75 75 73 77 75 76 84 83
12 11 19 29 41 51 66 62 50 45 46 50 50 47 43 38 33 33 33 32 36 40 45 51 56 55 58 55 56 57 64 70 74 79 80 79 80 82 87 83 77 81 85 83 88
9 7 16 30 40 50 58 60 51 48 45 50 49 45 39 34 29 25 22 23 26 31 36 41 44 45 42 48 54 60 64 73 82 83 87 82 80 84 77 76 68 83 86 89 91
3 6 17 27 35 42 51 57 54 48 45 50 49 44 38 33 29 25 23 21 23 25 27 30 35 40 46 51 56 62 68 68 63 65 67 57 58 62 67 66 67 76 78 79 82
6 6 18 26 32 40 50 59 55 47 44 49 49 43 37 32 29 27 23 23 23 23 28 33 38 41 46 53 54 48 44 32 35 40 48 48 39 50 56 59 62 75 74 73 76
10 7 19 30 40 44 57 62 55 46 46 50 48 44 39 33 29 26 24 25 24 26 31 34 37 42 39 26 19 12 25 31 36 38 30 26 32 41 43 46 45 66 73 69 70
8 10 18 29 41 51 61 60 53 44 44 48 46 44 40 35 32 28 28 26 27 28 29 32 33 19 18 13 13 20 21 22 30 32 31 22 21 22 31 41 43 48 62 68 67
7 7 16 25 34 48 60 59 52 45 43 47 47 43 40 37 35 33 28 27 24 23 27 24 18 18 13 9 18 17 15 23 25 24 23 20 13 7 12 20 28 35 42 59 62
6 6 16 25 32 44 57 56 50 42 39 41 41 43 42 38 37 32 27 24 21 21 18 11 16 13 6 11 17 15 19 20 32 39 30 31 26 19 5 9 16 24 30 50 56
5 6 14 22 33 47 57 56 49 42 38 36 40 41 39 38 34 27 26 19 17 15 13 16 10 5 7 9 19 15 17 25 26 37 42 38 36 29 22 14 12 18 29 47 49
Wind_Direction
253 248 244 241 240 238 237 238 237 236 237 239 237 237 236 235 235 238 239 239 240 240 242 242 241 243 246 250 252 254 254 257 258 260 259 262 261 256 254 255 253 251 252 252 253
253 253 248 244 240 239 237 237 237 236 237 236 238 237 236 237 235 236 238 239 241 242 244 245 247 246 246 253 255 255 255 255 256 258 258 259 252 250 251 253 253 253 252 253 253
255 250 249 247 241 237 239 238 236 236 237 238 236 236 237 235 235 237 238 239 242 244 247 249 250 249 251 251 254 255 256 257 253 254 255 254 252 249 251 253 253 252 253 254 254
260 253 246 246 242 241 237 235 237 237 235 235 234 237 236 234 233 236 237 237 240 243 246 249 250 251 250 250 249 252 251 250 252 253 252 252 252 250 251 255 257 255 253 255 256
266 258 250 244 244 245 242 240 237 233 236 235 234 235 236 235 233 237 238 237 237 240 243 246 248 250 251 251 246 247 248 246 246 249 252 254 253 252 254 254 256 257 255 254 254
268 262 256 246 242 242 243 244 244 238 235 234 234 234 233 236 237 235 235 235 236 237 240 244 246 248 251 254 249 245 244 244 244 248 250 254 256 257 257 252 253 257 257 255 254
268 261 256 250 245 242 240 243 242 242 238 238 236 236 232 234 234 235 234 234 236 237 238 240 243 245 246 249 248 243 244 244 248 247 252 254 262 255 258 256 256 255 257 258 255
268 262 256 252 249 246 242 242 241 239 240 241 239 237 235 233 232 232 232 232 233 234 236 238 241 242 244 246 247 247 249 248 247 250 251 253 254 258 260 262 260 258 255 256 256
266 261 256 253 248 246 244 243 240 237 237 240 242 240 238 235 233 231 230 232 233 234 235 237 239 242 246 247 248 248 249 255 249 249 250 252 252 257 259 262 265 261 258 259 262
273 260 251 249 249 245 243 242 238 235 234 235 238 236 237 236 232 230 230 230 231 234 236 237 239 243 245 246 248 252 255 259 253 248 249 251 252 257 261 262 265 264 262 260 257
279 263 253 240 242 243 239 240 236 231 229 229 230 231 231 230 228 228 228 229 230 233 236 237 239 242 246 249 252 254 257 256 253 249 247 249 253 256 259 259 261 262 268 267 268
275 265 251 240 232 235 237 230 226 226 227 228 227 226 227 228 227 225 227 228 229 231 233 237 238 243 247 250 252 256 255 251 250 250 248 250 246 252 256 259 263 264 265 266 267
272 260 248 240 228 226 232 218 224 223 224 222 222 223 223 224 223 223 227 229 229 230 233 237 240 244 247 251 253 252 251 250 250 251 252 251 246 254 256 258 261 261 262 263 264
271 255 243 235 226 218 221 214 221 221 220 219 219 219 218 216 218 221 225 229 231 232 235 238 241 246 249 250 250 249 249 251 252 252 253 254 244 250 257 262 261 260 258 259 261
275 255 237 227 219 210 210 210 216 217 217 214 216 213 211 213 218 225 232 234 234 236 237 241 244 246 246 246 247 248 252 253 252 253 253 256 253 244 253 255 260 261 259 259 260
282 253 225 217 208 204 203 205 214 212 211 210 211 208 211 215 222 230 237 235 234 236 238 240 241 243 244 246 249 251 253 254 256 258 256 256 258 251 256 255 257 260 260 257 257
296 251 214 208 202 198 200 202 209 203 207 205 205 208 212 217 224 232 233 230 232 234 237 240 242 246 248 248 251 253 255 258 259 262 266 263 261 260 256 253 252 250 255 258 256
309 252 210 207 195 196 197 201 200 197 203 203 203 206 212 218 227 224 224 226 229 233 239 243 248 249 252 255 259 262 264 267 267 266 263 263 264 261 254 249 249 251 250 252 252
326 247 203 198 191 191 198 198 188 193 197 199 200 204 211 214 216 217 217 220 227 234 241 246 251 256 260 263 265 267 269 270 272 274 272 269 267 264 261 255 252 248 248 246 250
335 222 187 192 189 190 195 192 185 195 195 196 198 201 206 208 206 202 204 215 229 236 243 248 254 259 266 270 272 273 277 280 283 284 280 275 269 265 259 253 241 245 241 245 244
7 175 178 186 186 184 188 184 188 194 192 193 195 199 203 203 199 196 198 208 222 231 240 249 256 265 270 276 279 284 287 289 290 286 282 278 268 264 259 245 233 237 238 237 240
62 148 173 170 170 175 181 180 191 191 187 190 196 199 203 204 201 201 203 213 222 236 249 257 264 272 277 286 294 297 296 290 305 298 286 281 264 256 253 247 234 232 235 232 235
63 162 170 164 162 167 176 181 189 187 184 188 195 199 204 206 209 209 215 225 236 248 256 265 275 283 296 308 320 334 346 344 339 334 307 278 260 261 254 251 239 232 234 231 232
71 151 168 169 170 174 180 183 185 186 183 188 194 201 205 209 213 218 227 235 245 253 264 276 287 316 310 307 355 9 2 351 344 344 347 332 302 270 256 248 240 232 227 228 229
81 155 165 169 172 176 178 181 184 185 184 189 196 201 207 212 218 225 231 240 245 255 273 285 305 307 254 12 36 28 19 14 16 9 21 27 14 324 265 247 235 227 223 217 222
41 145 167 168 169 176 180 178 182 183 186 191 196 203 208 214 219 230 230 232 248 269 272 292 300 278 332 53 40 37 30 33 31 27 23 56 54 61 105 199 208 211 209 206 211
8 144 160 178 177 173 177 178 181 181 183 189 201 205 208 215 222 217 222 232 261 258 263 287 258 292 35 6 35 30 38 39 31 29 39 61 59 58 66 93 146 180 185 193 201
Height
10549 10552 10554 10559 10565 10572 10580 10587 10593 10601 10610 10617 10625 10633 10642 10648 10656 10660 10663 10674 10679 10684 10689 10695 10700 10705 10708 10713 10716 10721 10727 10727 10723 10724 10727 10740 10746 10747 10746 10747 10749 10749 10750 10752 10753
10534 10536 10539 10543 10548 10554 10562 10568 10576 10583 10591 10600 10608 10616 10626 10633 10639 10643 10652 10659 10666 10671 10677 10682 10687 10693 10698 10701 10705 10710 10714 10711 10713 10716 10721 10724 10730 10734 10734 10734 10736 10736 10738 10740 10742
10518 10519 10523 10526 10531 10537 10544 10551 10558 10566 10575 10583 10591 10600 10609 10616 10625 10627 10639 10645 10652 10658 10664 10668 10673 10679 10686 10690 10694 10699 10700 10702 10703 10705 10708 10710 10717 10723 10724 10724 10720 10726 10730 10729 10731
10502 10502 10505 10509 10515 10519 10527 10534 10541 10548 10556 10565 10574 10583 10591 10600 10608 10612 10624 10630 10638 10646 10650 10654 10660 10666 10673 10679 10684 10687 10687 10690 10691 10694 10696 10699 10704 10709 10715 10708 10713 10716 10719 10719 10718
10487 10486 10488 10492 10498 10503 10509 10515 10523 10530 10539 10547 10555 10564 10572 10580 10590 10597 10608 10617 10624 10631 10635 10642 10648 10653 10659 10665 10671 10677 10675 10679 10681 10682 10685 10690 10691 10698 10703 10698 10701 10703 10706 10706 10706
10472 10472 10473 10474 10479 10485 10491 10497 10504 10512 10519 10528 10536 10545 10553 10564 10574 10580 10590 10600 10608 10615 10622 10629 10634 10641 10646 10651 10657 10662 10664 10666 10669 10670 10674 10678 10680 10693 10682 10685 10690 10693 10692 10692 10695
10455 10455 10456 10458 10461 10465 10471 10477 10484 10494 10502 10511 10518 10526 10535 10547 10555 10564 10575 10587 10595 10602 10609 10614 10621 10628 10632 10637 10645 10648 10650 10656 10655 10657 10664 10668 10673 10678 10665 10677 10680 10681 10680 10681 10682
10441 10440 10439 10441 10444 10448 10453 10457 10464 10473 10482 10492 10500 10507 10518 10528 10538 10547 10559 10570 10579 10587 10594 10601 10606 10613 10618 10623 10628 10635 10638 10642 10641 10646 10652 10658 10661 10659 10657 10662 10667 10671 10671 10670 10670
10426 10423 10424 10425 10429 10431 10435 10438 10446 10452 10462 10473 10480 10488 10502 10511 10522 10530 10542 10555 10565 10572 10580 10587 10594 10601 10604 10607 10614 10619 10625 10627 10631 10634 10636 10643 10651 10643 10646 10652 10655 10657 10660 10660 10658
10405 10404 10405 10408 10411 10415 10419 10423 10429 10438 10447 10454 10459 10469 10486 10494 10503 10514 10526 10540 10550 10558 10566 10574 10581 10588 10589 10591 10598 10604 10611 10612 10614 10617 10620 10629 10641 10634 10635 10639 10643 10643 10644 10646 10645
10370 10376 10379 10386 10390 10396 10401 10408 10421 10425 10430 10431 10441 10456 10467 10479 10490 10500 10512 10525 10537 10546 10552 10562 10570 10569 10571 10579 10584 10587 10592 10596 10597 10599 10606 10615 10628 10626 10621 10624 10626 10627 10629 10632 10633
10343 10346 10350 10358 10368 10376 10384 10400 10402 10403 10411 10423 10435 10447 10457 10469 10480 10489 10500 10512 10522 10532 10540 10547 10552 10555 10559 10562 10568 10572 10576 10580 10583 10584 10590 10597 10616 10610 10607 10612 10612 10612 10613 10613 10614
10320 10322 10324 10332 10343 10355 10369 10386 10384 10393 10401 10412 10423 10435 10447 10459 10469 10479 10489 10497 10508 10519 10526 10533 10538 10540 10545 10549 10554 10557 10562 10563 10567 10569 10575 10581 10600 10590 10598 10596 10593 10594 10594 10594 10597
10300 10299 10302 10312 10323 10340 10357 10369 10374 10381 10389 10403 10414 10426 10441 10449 10460 10470 10479 10489 10498 10505 10513 10519 10523 10527 10532 10536 10537 10543 10546 10549 10553 10553 10556 10560 10576 10583 10579 10576 10575 10573 10572 10574 10578
10281 10280 10285 10294 10308 10325 10341 10354 10359 10368 10382 10395 10410 10422 10433 10444 10452 10462 10471 10480 10487 10492 10499 10507 10510 10516 10520 10520 10527 10530 10532 10533 10533 10534 10536 10544 10540 10579 10564 10560 10554 10547 10551 10555 10559
10265 10265 10271 10281 10293 10306 10322 10335 10341 10361 10378 10392 10405 10417 10426 10437 10446 10454 10461 10467 10471 10479 10486 10494 10500 10506 10508 10511 10515 10517 10516 10514 10513 10514 10522 10524 10515 10556 10540 10540 10536 10527 10526 10534 10543
10254 10255 10259 10269 10278 10291 10305 10320 10336 10360 10373 10385 10398 10409 10420 10430 10438 10445 10450 10454 10461 10471 10478 10486 10493 10496 10496 10499 10501 10502 10500 10499 10498 10494 10502 10494 10491 10520 10510 10506 10504 10504 10508 10512 10520
10247 10250 10254 10260 10276 10285 10300 10313 10338 10357 10368 10379 10391 10404 10415 10425 10432 10436 10441 10447 10456 10465 10473 10481 10483 10484 10484 10490 10490 10489 10486 10482 10477 10475 10474 10469 10477 10477 10480 10483 10482 10488 10492 10486 10492
10244 10247 10253 10264 10272 10285 10296 10315 10340 10350 10360 10372 10387 10400 10410 10420 10425 10429 10436 10444 10453 10461 10468 10472 10472 10475 10475 10478 10477 10478 10469 10461 10457 10451 10445 10451 10453 10450 10440 10449 10462 10461 10460 10471 10470
10244 10247 10253 10263 10272 10281 10296 10319 10336 10345 10358 10370 10382 10395 10406 10415 10422 10427 10433 10440 10448 10456 10461 10464 10465 10464 10466 10466 10463 10459 10456 10445 10432 10427 10414 10418 10408 10402 10410 10411 10431 10427 10433 10443 10452
10246 10250 10256 10264 10274 10285 10299 10320 10329 10341 10355 10368 10380 10392 10402 10411 10418 10423 10429 10437 10444 10449 10453 10457 10458 10457 10456 10455 10451 10447 10439 10430 10412 10396 10382 10383 10378 10374 10373 10382 10393 10396 10407 10421 10427
10251 10254 10260 10267 10278 10288 10302 10317 10326 10341 10354 10366 10377 10390 10400 10407 10414 10421 10428 10433 10439 10444 10447 10448 10449 10450 10446 10444 10441 10432 10423 10412 10395 10382 10367 10358 10362 10349 10350 10355 10370 10372 10383 10399 10410
10258 10260 10264 10270 10278 10290 10304 10314 10326 10341 10352 10364 10375 10386 10395 10403 10411 10418 10424 10429 10435 10438 10439 10440 10441 10441 10441 10433 10428 10420 10409 10398 10386 10370 10354 10346 10339 10336 10340 10342 10349 10356 10370 10386 10397
10265 10266 10269 10274 10281 10288 10302 10315 10328 10342 10353 10363 10374 10383 10392 10401 10407 10415 10420 10426 10429 10432 10433 10434 10435 10432 10430 10426 10421 10415 10407 10398 10384 10369 10350 10336 10331 10328 10329 10331 10338 10345 10357 10375 10389
10272 10271 10274 10278 10284 10292 10301 10315 10328 10341 10352 10361 10371 10381 10390 10398 10405 10411 10417 10421 10424 10427 10428 10428 10428 10427 10426 10422 10418 10412 10406 10398 10385 10372 10356 10341 10329 10325 10324 10326 10332 10341 10350 10363 10381
10278 10279 10280 10282 10288 10296 10306 10320 10332 10343 10353 10362 10371 10379 10387 10396 10402 10409 10414 10417 10420 10421 10421 10423 10424 10424 10423 10419 10415 10410 10405 10400 10388 10377 10358 10346 10337 10331 10328 10327 10330 10337 10347 10359 10375
10283 10284 10286 10289 10290 10298 10309 10321 10333 10343 10351 10361 10369 10376 10385 10392 10399 10406 10409 10414 10415 10416 10417 10418 10421 10421 10420 10417 10414 10410 10406 10400 10391 10378 10369 10357 10351 10342 10337 10334 10334 10338 10346 10360 10378